TimeEDT,TemperatureF,Dew PointF,Humidity,Sea Level PressureIn,VisibilityMPH,Wind Direction,Wind SpeedMPH,Gust SpeedMPH,PrecipitationIn,Events,Conditions,WindDirDegrees,DateUTC
12:15 AM,57.2,42.8,59,30.10,10.0,SW,8.1,-,N/A,,Clear,220,2013-03-17 04:15:00
12:35 AM,57.2,42.8,59,30.10,10.0,SSW,9.2,-,N/A,,Clear,210,2013-03-17 04:35:00
12:55 AM,55.4,42.8,63,30.10,10.0,SSW,9.2,-,N/A,,Clear,210,2013-03-17 04:55:00
1:15 AM,55.4,42.8,63,30.09,10.0,SSW,9.2,-,N/A,,Clear,210,2013-03-17 05:15:00
1:35 AM,55.4,42.8,63,30.09,10.0,SW,6.9,-,N/A,,Clear,220,2013-03-17 05:35:00
1:55 AM,53.6,42.8,67,30.09,10.0,West,5.8,-,N/A,,Clear,280,2013-03-17 05:55:00
2:15 AM,53.6,41.0,62,30.09,10.0,Calm,Calm,-,N/A,,Clear,0,2013-03-17 06:15:00
2:35 AM,50.0,41.0,71,30.08,10.0,SW,4.6,-,N/A,,Clear,220,2013-03-17 06:35:00
2:55 AM,48.2,41.0,76,30.08,10.0,Calm,Calm,-,N/A,,Clear,0,2013-03-17 06:55:00
3:15 AM,46.4,41.0,81,30.08,10.0,Calm,Calm,-,N/A,,Clear,0,2013-03-17 07:15:00
3:35 AM,44.6,41.0,87,30.07,10.0,Calm,Calm,-,N/A,,Clear,0,2013-03-17 07:35:00
3:55 AM,44.6,41.0,87,30.07,10.0,Calm,Calm,-,N/A,,Clear,0,2013-03-17 07:55:00
4:15 AM,41.0,39.2,93,30.07,10.0,Calm,Calm,-,N/A,,Clear,0,2013-03-17 08:15:00
4:35 AM,41.0,39.2,93,30.07,10.0,Calm,Calm,-,N/A,,Clear,0,2013-03-17 08:35:00
4:55 AM,41.0,39.2,93,30.07,10.0,Calm,Calm,-,N/A,,Clear,0,2013-03-17 08:55:00
5:15 AM,41.0,39.2,93,30.07,10.0,Calm,Calm,-,N/A,,Clear,0,2013-03-17 09:15:00
5:35 AM,41.0,39.2,93,30.07,10.0,Calm,Calm,-,N/A,,Clear,0,2013-03-17 09:35:00
6:15 AM,39.2,39.2,100,30.08,8.0,Calm,Calm,-,N/A,,Clear,0,2013-03-17 10:15:00
6:35 AM,39.2,39.2,100,30.08,8.0,Calm,Calm,-,N/A,,Clear,0,2013-03-17 10:35:00
6:50 AM,39.2,39.2,100,30.08,10.0,Calm,Calm,-,N/A,,Clear,0,2013-03-17 10:50:00
7:50 AM,39.2,37.4,93,30.10,10.0,SSE,3.5,-,N/A,,Clear,160,2013-03-17 11:50:00
8:50 AM,48.2,48.2,100,30.12,10.0,South,3.5,-,N/A,,Clear,180,2013-03-17 12:50:00
9:50 AM,60.8,53.6,77,30.13,10.0,SSW,5.8,-,N/A,,Clear,210,2013-03-17 13:50:00
10:50 AM,68.0,50.0,52,30.14,10.0,South,9.2,-,N/A,,Clear,170,2013-03-17 14:50:00
11:50 AM,73.4,41.0,31,30.12,10.0,SSW,11.5,-,N/A,,Clear,210,2013-03-17 15:50:00
1:50 PM,75.2,41.0,29,30.07,10.0,South,5.8,-,N/A,,Clear,190,2013-03-17 17:50:00
3:50 PM,75.2,46.4,36,30.01,10.0,SSW,8.1,-,N/A,,Clear,200,2013-03-17 19:50:00
4:50 PM,75.2,46.4,36,30.01,10.0,SSW,11.5,-,N/A,,Clear,200,2013-03-17 20:50:00
6:50 PM,71.6,48.2,43,30.01,10.0,West,5.8,-,N/A,,Clear,260,2013-03-17 22:50:00
7:50 PM,66.2,50.0,56,30.02,10.0,Calm,Calm,-,N/A,,Overcast,0,2013-03-17 23:50:00
8:15 PM,64.4,50.0,59,30.03,10.0,Calm,Calm,-,N/A,,Partly Cloudy,0,2013-03-18 00:15:00
8:35 PM,62.6,51.8,68,30.04,10.0,Calm,Calm,-,N/A,,Partly Cloudy,0,2013-03-18 00:35:00
8:55 PM,62.6,51.8,68,30.05,10.0,Calm,Calm,-,N/A,,Clear,0,2013-03-18 00:55:00
9:15 PM,62.6,50.0,63,30.05,10.0,SSW,3.5,-,N/A,,Clear,200,2013-03-18 01:15:00
9:35 PM,64.4,50.0,59,30.05,10.0,Calm,Calm,-,N/A,,Clear,0,2013-03-18 01:35:00
9:55 PM,64.4,50.0,59,30.06,10.0,Calm,Calm,-,N/A,,Clear,0,2013-03-18 01:55:00
10:15 PM,60.8,51.8,72,30.06,10.0,Calm,Calm,-,N/A,,Clear,0,2013-03-18 02:15:00
10:35 PM,59.0,53.6,82,30.07,10.0,Calm,Calm,-,N/A,,Clear,0,2013-03-18 02:35:00
10:55 PM,59.0,53.6,82,30.07,10.0,Calm,Calm,-,N/A,,Clear,0,2013-03-18 02:55:00
11:15 PM,59.0,51.8,77,30.07,10.0,Calm,Calm,-,N/A,,Clear,0,2013-03-18 03:15:00
11:35 PM,59.0,53.6,82,30.08,10.0,Calm,Calm,-,N/A,,Clear,0,2013-03-18 03:35:00
11:55 PM,59.0,53.6,82,30.07,10.0,Calm,Calm,-,N/A,,Partly Cloudy,0,2013-03-18 03:55:00